Location: Medlow Airstrip Trail, Medlow Bath NSW 2780, Australia
(33.6682°S, 150.3233°E)
Time: 20:27:04
(UTC+10:00)

LightSail 2 - Pass Details

Date: 25 August 2019
Orbit: 699 x 732 km, 24.0° (Epoch: 15 September)

Event Time Altitude Azimuth Distance (km) Brightness Sun altitude
Exits shadow 05:43:52 - 312° (NW) 3,161 8.1 -9.6°
Rises 05:44:00 0° 312° (NW) 3,119 8.1 -9.6°
Reaches altitude 10° 05:47:02 10° 329° (NNW) 2,208 7.5 -9.0°
Maximum altitude 05:50:43 19° 14° (NNE) 1,664 7.3 -8.2°
Drops below altitude 10° 05:54:27 10° 59° (ENE) 2,225 9.0 -7.4°
Sets 05:57:31 0° 76° (ENE) 3,152 11.1 -6.8°
